| time (UTC) | temp C | wind direction | speed KPH | gust KPH | rain 1hr cm | rain 24hr cm | rain mn cm | humidity % | barometer mb |
| 20260505093046 | 10 | 0 | 1.6 | 6.4 | 0.00 | 0.00 | 0.00 | 52 | 1010.4 |
| 20260505091553 | 10 | 0 | 0.0 | 4.8 | 0.00 | 0.00 | 0.00 | 55 | 1010.4 |
| 20260505090053 | 10 | 0 | 0.0 | 6.4 | 0.00 | 0.00 | 0.00 | 55 | 1010.2 |
| 20260505084538 | 12 | 101 | 1.6 | 19.3 | 0.00 | 0.00 | 0.00 | 50 | 1010.1 |
| 20260505083047 | 10 | 170 | 0.0 | 11.3 | 0.00 | 0.00 | 0.00 | 57 | 1010.0 |
| 20260505081542 | 11 | 0 | 0.0 | 4.8 | 0.00 | 0.00 | 0.00 | 49 | 1009.9 |
| 20260505080050 | 10 | 276 | 0.0 | 9.7 | 0.00 | 0.00 | 0.00 | 54 | 1009.9 |
| 20260505074542 | 10 | 0 | 0.0 | 4.8 | 0.00 | 0.00 | 0.00 | 56 | 1009.8 |
| 20260505073050 | 10 | 0 | 0.0 | 0.0 | 0.00 | 0.00 | 0.00 | 55 | 1009.8 |
| 20260505071543 | 11 | 0 | 0.0 | 3.2 | 0.00 | 0.00 | 0.00 | 55 | 1009.7 |
| 20260505070038 | 11 | 0 | 0.0 | 0.0 | 0.00 | 0.00 | 0.00 | 54 | 1009.5 |
| 20260505064537 | 11 | 0 | 0.0 | 6.4 | 0.00 | 0.00 | 0.00 | 54 | 1009.3 |
| 20260505063048 | 11 | 0 | 0.0 | 4.8 | 0.00 | 0.00 | 0.00 | 54 | 1009.2 |
| 20260505061541 | 12 | 0 | 0.0 | 6.4 | 0.00 | 0.00 | 0.00 | 52 | 1009.2 |
| 20260505060039 | 12 | 0 | 0.0 | 3.2 | 0.00 | 0.00 | 0.00 | 51 | 1009.4 |
| 20260505054610 | 12 | 0 | 0.0 | 3.2 | 0.00 | 0.00 | 0.00 | 49 | 1009.3 |
| 20260505053045 | 13 | 0 | 0.0 | 1.6 | 0.00 | 0.00 | 0.00 | 45 | 1008.9 |
| 20260505051542 | 14 | 0 | 0.0 | 6.4 | 0.00 | 0.00 | 0.00 | 43 | 1008.9 |
| 20260505041548 | 16 | 18 | 1.6 | 9.7 | 0.00 | 0.00 | 0.00 | 38 | 1008.2 |
| 20260505040045 | 15 | 18 | 3.2 | 6.4 | 0.00 | 0.00 | 0.00 | 42 | 1008.0 |
| 20260505034541 | 16 | 19 | 3.2 | 8.0 | 0.00 | 0.00 | 0.00 | 41 | 1008.2 |
| 20260505033041 | 17 | 5 | 1.6 | 14.5 | 0.00 | 0.00 | 0.00 | 33 | 1008.1 |
| 20260505031541 | 19 | 19 | 1.6 | 6.4 | 0.00 | 0.00 | 0.00 | 27 | 1008.2 |
| 20260505030056 | 20 | 32 | 1.6 | 9.7 | 0.00 | 0.00 | 0.00 | 24 | 1007.9 |
| 20260505024543 | 21 | 22 | 3.2 | 8.0 | 0.00 | 0.00 | 0.00 | 22 | 1008.1 |
| 20260505023037 | 22 | 27 | 4.8 | 8.0 | 0.00 | 0.00 | 0.00 | 21 | 1008.0 |
| 20260505021550 | 22 | 0 | 1.6 | 8.0 | 0.00 | 0.00 | 0.00 | 20 | 1007.9 |
| 20260505020050 | 23 | 38 | 3.2 | 16.1 | 0.00 | 0.00 | 0.00 | 19 | 1007.9 |
| 20260505014540 | 23 | 46 | 4.8 | 16.1 | 0.00 | 0.00 | 0.00 | 18 | 1008.0 |
| 20260505013037 | 23 | 32 | 8.0 | 19.3 | 0.00 | 0.00 | 0.00 | 17 | 1008.0 |
| 20260505011544 | 23 | 43 | 11.3 | 17.7 | 0.00 | 0.00 | 0.00 | 17 | 1008.5 |
| 20260505010103 | 24 | 38 | 8.0 | 22.5 | 0.00 | 0.00 | 0.00 | 17 | 1008.3 |
| 20260505004539 | 25 | 112 | 6.4 | 22.5 | 0.00 | 0.00 | 0.00 | 16 | 1008.2 |
| 20260505003047 | 25 | 53 | 8.0 | 20.9 | 0.00 | 0.00 | 0.00 | 17 | 1007.9 |
| 20260505001540 | 25 | 44 | 8.0 | 20.9 | 0.00 | 0.00 | 0.00 | 16 | 1008.1 |
| 20260505000053 | 25 | 61 | 11.3 | 29.0 | 0.00 | 0.00 | 0.00 | 15 | 1008.1 |
| 20260504234541 | 25 | 42 | 6.4 | 22.5 | 0.00 | 0.00 | 0.00 | 17 | 1007.9 |
| 20260504233049 | 26 | 23 | 6.4 | 16.1 | 0.00 | 0.00 | 0.00 | 16 | 1008.1 |
| 20260504231538 | 25 | 46 | 6.4 | 16.1 | 0.00 | 0.00 | 0.00 | 17 | 1008.1 |
| 20260504230104 | 25 | 24 | 6.4 | 22.5 | 0.00 | 0.00 | 0.00 | 16 | 1008.3 |
| 20260504224558 | 25 | 355 | 3.2 | 20.9 | 0.00 | 0.00 | 0.00 | 19 | 1008.3 |
| 20260504223048 | 25 | 18 | 8.0 | 19.3 | 0.00 | 0.00 | 0.00 | 17 | 1008.2 |
| 20260504221539 | 25 | 341 | 3.2 | 20.9 | 0.00 | 0.00 | 0.00 | 16 | 1008.1 |
| 20260504220052 | 25 | 13 | 9.7 | 24.1 | 0.00 | 0.00 | 0.00 | 14 | 1008.2 |
| 20260504214547 | 25 | 0 | 3.2 | 22.5 | 0.00 | 0.00 | 0.00 | 17 | 1008.5 |
| 20260504213040 | 25 | 24 | 6.4 | 16.1 | 0.00 | 0.00 | 0.00 | 16 | 1008.5 |
| 20260504211538 | 25 | 355 | 9.7 | 25.7 | 0.00 | 0.00 | 0.00 | 18 | 1008.5 |
| 20260504210052 | 25 | 23 | 11.3 | 22.5 | 0.00 | 0.00 | 0.00 | 16 | 1008.6 |
| 20260504204546 | 25 | 24 | 8.0 | 19.3 | 0.00 | 0.00 | 0.00 | 19 | 1008.5 |
| 20260504203045 | 24 | 32 | 12.9 | 22.5 | 0.00 | 0.00 | 0.00 | 17 | 1008.6 |
| 20260504201544 | 25 | 351 | 3.2 | 19.3 | 0.00 | 0.00 | 0.00 | 16 | 1008.5 |
| 20260504200050 | 25 | 37 | 8.0 | 17.7 | 0.00 | 0.00 | 0.00 | 17 | 1008.6 |
| 20260504194538 | 25 | 21 | 3.2 | 17.7 | 0.00 | 0.00 | 0.00 | 20 | 1008.6 |
| 20260504193045 | 24 | 16 | 4.8 | 16.1 | 0.00 | 0.00 | 0.00 | 19 | 1008.8 |
| 20260504191552 | 23 | 46 | 8.0 | 19.3 | 0.00 | 0.00 | 0.00 | 17 | 1008.8 |
| 20260504190040 | 23 | 37 | 8.0 | 16.1 | 0.00 | 0.00 | 0.00 | 16 | 1008.8 |
| 20260504184540 | 23 | 44 | 3.2 | 17.7 | 0.00 | 0.00 | 0.00 | 19 | 1008.9 |
| 20260504183038 | 23 | 53 | 4.8 | 20.9 | 0.00 | 0.00 | 0.00 | 20 | 1009.0 |
| 20260504181544 | 23 | 355 | 6.4 | 25.7 | 0.00 | 0.00 | 0.00 | 20 | 1009.1 |
| 20260504180044 | 22 | 14 | 9.7 | 20.9 | 0.00 | 0.00 | 0.00 | 18 | 1009.0 |
| 20260504174539 | 22 | 13 | 6.4 | 19.3 | 0.00 | 0.00 | 0.00 | 22 | 1008.8 |
| 20260504173039 | 22 | 15 | 11.3 | 24.1 | 0.00 | 0.00 | 0.00 | 21 | 1008.7 |
| 20260504171538 | 21 | 25 | 6.4 | 22.5 | 0.00 | 0.00 | 0.00 | 24 | 1008.6 |